Weather in Gody-Dobrovodka

Ukraine / Ivano-Frankovsk District     48°36′07″N   25°04′20″E
temp.,
°C
wind,
m/s
gust,
m/s
humid.,
%
clouds,
%
prec.,
mm/h
press.,
hPa
HPBL,
m
26 january, tue
tue2623:00−1w31170100 0.0 1001561
02:000wsw5136168 0.0 1003695
05:000w514600 0.0 1004704
08:00−2w27690 0.0 1006247
11:00+1wnw255426 0.0 1008645
14:00+3nw344822 0.0 10091326
17:00−1nnw376937 0.0 1010241
20:00−3wnw257819 0.0 1012161
27 january, wed
wed2723:00−3w24734 0.0 1013116
02:00−3w246752 0.0 1013120
05:00−3w3765100 0.0 1012267
08:00−4wnw2668100 0.0 1012231
11:00−2nw5871100 0.0 1012794
14:00−1nnw5770100 0.0 1010911
17:00−2nw3877100 0.0 1010680
20:00−2nw51088100 0.1 1010727
28 january, thu
thu2823:00−3nw51090100 0.4 1009772
02:00−3nw61190100 0.8 1009740
05:00−4nw61189100 0.3 1008771
08:00−4wnw61188100 0.5 1008742
11:00−2nw71174100 0.2 10081044
14:00−1nw71164100 0.2 1006964
17:00−3nnw357548 0.0 1006155
20:00−4wsw237531 0.0 100671
29 january, fri
fri2923:00−4sw2966100 0.0 1004286
02:00−3n1169100 0.0 100222
05:00−4ese1190100 0.4 1000100
08:00−4s1196100 2.2 100072
11:00−2sw1290100 0.9 999229
14:000nnw247199 1.0 999861
17:00−2wnw1270100 0.1 100025
20:00−5wnw1280100 0.1 100237
30 january, sat
sat3023:00−5wsw118386 0.0 100221
02:00−5sw018293 0.0 100121
05:00−5ssw0082100 0.0 100121
08:00−5s0084100 0.0 100121
11:00−3nne017294 0.0 1002431
14:00−2e227297 0.0 1001446
17:00−3ene238993 0.1 1000122
20:00−4nne129697 1.2 1001125